Temperature
12 11 11 11 11 11 12 12 12 12 12 12 12 12 13 13 13 13 13 14 14 14 14 14 14 14 14 14 15 15 15 15 15 15 15 15 15 15 15 15 15 15 15
11 11 11 11 11 11 12 12 12 12 12 12 12 12 12 12 13 13 13 13 14 14 14 14 14 14 14 14 14 14 14 14 14 14 14 14 14 14 14 14 14 14 14
11 11 11 11 11 11 11 11 11 11 11 12 12 12 12 12 12 13 13 13 13 13 14 14 14 14 14 14 14 14 14 14 14 14 14 14 14 14 14 14 14 14 13
11 11 11 11 11 11 11 11 11 11 11 11 11 12 12 12 12 12 12 13 13 13 13 13 14 14 14 14 14 14 14 14 14 14 14 13 13 13 13 13 13 13 13
11 11 11 11 11 11 11 11 11 11 11 11 11 11 11 12 12 12 12 12 13 13 13 13 13 13 13 13 13 13 14 14 13 13 13 13 13 13 13 13 13 13 12
11 11 11 11 11 11 11 11 11 11 11 11 11 11 11 11 12 12 12 12 12 12 13 13 13 13 13 13 13 13 13 13 13 13 13 13 13 13 13 13 12 12 12
11 11 11 11 11 11 11 11 11 11 11 11 11 11 11 11 11 12 12 12 12 12 12 12 13 13 13 13 13 13 13 13 13 13 13 13 13 13 13 12 12 12 12
11 11 11 11 11 11 10 11 11 11 11 11 11 11 11 11 11 11 12 12 12 12 12 12 13 13 13 13 13 13 13 13 13 13 13 13 13 13 13 13 12 12 12
12 11 11 11 11 11 10 10 10 10 10 11 11 11 11 11 11 11 11 12 12 12 12 12 12 12 13 13 13 13 13 12 12 12 12 12 13 13 12 12 12 12 11
12 11 11 11 11 11 10 10 10 10 10 10 10 10 11 11 11 11 11 11 12 12 12 12 12 12 12 12 13 13 12 12 12 12 12 12 12 12 12 12 12 12 11
12 12 11 11 11 11 10 10 10 10 10 10 10 10 11 11 11 11 11 11 11 12 12 12 12 12 12 12 12 12 12 12 12 12 12 12 12 12 12 12 12 12 12
12 12 12 11 11 11 11 11 10 10 11 11 11 11 11 11 11 11 11 11 11 11 12 12 12 12 12 12 12 12 12 12 12 12 12 12 12 12 11 11 11 11 11
12 12 12 11 11 11 11 11 11 11 11 11 11 11 11 11 11 11 11 11 11 11 11 11 12 12 12 12 12 12 12 12 12 12 12 12 11 11 11 11 11 11 11
13 13 12 12 12 11 11 11 11 11 11 11 11 11 11 11 11 11 11 11 11 11 11 11 11 11 11 11 11 11 11 11 11 11 11 11 11 11 11 11 11 11 10
13 13 12 12 12 12 11 11 11 11 11 11 11 11 11 11 11 11 11 11 11 11 11 11 11 11 11 11 11 11 11 11 11 11 11 11 11 11 10 10 10 10 10
14 13 13 13 12 12 12 11 11 11 11 11 11 11 11 11 11 11 11 11 11 11 11 11 11 11 11 11 11 11 11 11 11 11 11 10 10 10 10 10 10 10 10
14 14 13 13 13 12 12 12 11 11 11 11 11 11 11 11 11 11 11 11 11 11 10 10 10 10 10 10 10 11 10 10 10 10 10 10 10 10 10 10 10 9 9
15 14 14 13 13 13 12 12 12 11 11 11 11 11 11 11 11 11 11 11 11 11 11 11 10 10 10 10 10 10 10 10 10 10 10 10 10 9 9 9 9 9 9
15 15 15 14 14 13 13 12 12 12 12 12 11 11 11 11 11 11 11 11 11 11 11 11 11 10 10 10 10 10 10 10 10 10 10 9 9 9 9 9 9 9 9
16 16 15 15 14 14 13 13 12 12 12 12 12 12 11 11 11 11 11 11 11 11 11 11 11 11 11 10 10 10 10 10 10 10 10 9 9 9 9 9 9 9 8
16 16 16 15 15 14 14 14 13 13 12 12 12 12 12 11 11 12 11 11 11 11 11 11 11 11 11 11 10 10 10 10 10 10 10 9 9 9 9 9 8 8 8
16 16 16 16 15 15 15 14 14 13 13 13 12 12 12 12 12 12 12 12 12 11 11 11 11 11 11 11 11 11 11 10 10 10 10 9 9 9 9 8 8 8 8
16 16 16 16 16 15 15 14 14 14 13 13 13 12 12 12 12 12 12 12 12 12 11 11 11 11 11 11 11 11 11 11 10 10 10 9 9 9 9 8 8 8 8
15 16 16 16 15 15 15 15 14 14 14 14 13 13 13 12 12 12 12 12 12 12 12 12 12 11 11 11 11 11 11 11 10 10 10 10 9 9 9 8 8 8 8
15 15 15 15 15 15 15 15 15 14 14 14 14 13 13 13 12 12 12 12 12 12 12 12 12 12 12 12 12 12 11 11 11 11 10 10 10 9 9 9 8 8 8
14 14 14 14 14 15 15 15 14 14 14 14 14 14 13 13 13 13 12 12 12 12 12 12 12 12 12 12 12 12 11 11 11 11 10 10 10 9 9 9 8 8 8
Wind_Speed
8 7 8 8 8 8 7 7 7 6 6 6 5 5 4 3 2 0 1 2 3 4 4 5 5 5 5 4 5 5 5 4 4 2 1 2 3 4 4 5 6 6 7
7 7 8 8 9 9 8 8 8 7 6 6 5 5 4 4 2 1 0 1 2 3 4 4 4 4 5 4 5 5 5 4 4 5 3 2 3 4 5 5 5 6 6
6 7 8 8 9 9 9 9 8 8 7 7 6 5 5 4 3 2 1 1 1 1 2 4 5 5 5 4 4 4 4 5 4 5 4 2 2 4 5 5 5 5 7
5 6 7 8 8 8 8 8 8 8 7 7 7 6 5 4 3 2 1 1 1 1 1 2 3 5 5 5 5 5 5 5 5 6 5 4 3 4 5 6 5 4 5
5 6 6 7 7 7 8 8 8 8 8 7 7 7 6 5 4 3 2 2 2 2 2 2 2 4 5 5 5 5 6 6 6 6 5 4 4 5 6 4 6 6 5
4 5 6 6 7 7 8 8 8 8 8 8 8 8 7 6 8 8 5 3 3 3 2 2 2 3 4 5 6 6 7 8 7 6 4 6 6 5 5 7 7 6 3
3 4 5 6 7 7 7 8 8 8 8 9 8 8 8 8 9 9 8 5 4 3 3 2 2 2 3 4 5 6 5 6 7 6 7 6 6 7 8 8 6 4 4
3 4 5 5 6 6 7 7 7 6 7 7 8 8 8 9 12 10 9 6 5 4 4 3 3 2 3 5 6 6 5 4 4 4 5 5 5 7 7 7 8 8 7
3 4 4 4 5 6 6 6 5 5 6 6 6 8 8 9 11 10 9 5 5 6 5 4 3 3 5 8 8 8 7 5 6 8 8 7 9 11 11 9 9 9 5
4 4 3 3 3 4 5 4 4 4 5 5 6 7 7 8 11 11 9 4 5 5 5 5 5 4 5 8 7 7 7 5 5 7 7 8 8 9 10 8 9 9 6
3 2 3 3 3 3 3 3 4 4 5 6 6 6 7 8 10 12 10 4 3 4 4 4 4 5 6 7 7 5 7 7 6 7 7 6 6 6 5 5 5 6 6
2 2 2 3 2 1 2 3 3 4 5 5 5 6 5 6 8 9 11 8 5 4 3 3 3 7 8 8 7 8 11 9 6 6 6 5 5 5 5 6 8 8 7
3 3 3 2 2 1 1 2 2 3 3 3 4 4 5 5 6 10 10 9 8 4 3 6 7 9 9 7 9 10 8 6 6 6 6 4 3 4 5 5 7 10 12
5 4 3 3 2 2 1 1 1 1 1 2 2 3 4 4 4 5 5 5 6 5 4 6 9 10 8 8 7 6 5 5 5 5 5 3 3 4 4 4 4 4 5
6 5 4 3 3 3 2 2 3 3 3 2 2 2 2 3 4 5 3 3 2 1 2 3 4 4 4 4 4 4 4 4 4 3 4 4 4 4 3 3 3 3 3
7 6 5 4 4 3 3 3 5 6 5 6 6 4 3 4 5 5 4 4 3 2 3 2 2 2 2 2 3 3 3 3 3 4 4 4 4 4 4 3 3 3 4
9 8 6 5 5 5 4 4 4 4 5 6 7 7 6 5 4 3 3 3 3 2 2 1 1 1 1 2 2 2 2 2 2 4 4 4 4 4 4 4 3 3 4
10 10 8 6 6 6 6 5 5 4 4 4 4 7 7 6 5 3 2 1 1 1 1 2 2 2 2 2 2 2 2 3 3 3 3 4 4 4 4 4 4 4 4
10 8 7 7 6 6 6 5 5 6 5 5 4 4 6 6 5 5 3 2 3 3 3 3 3 3 3 3 3 3 4 3 3 3 4 4 4 4 4 4 4 6 4
9 13 11 7 7 6 6 6 6 6 6 6 6 6 3 3 3 4 4 4 4 5 4 4 4 4 4 4 4 4 4 4 4 4 4 4 4 4 5 5 6 5 4
9 10 13 9 8 8 7 8 8 7 7 7 7 7 9 6 6 7 6 6 6 7 6 6 5 5 5 5 5 5 6 5 5 5 4 5 5 4 4 5 5 5 4
8 8 9 10 9 9 9 8 8 8 9 9 7 6 11 7 7 7 7 7 8 7 7 6 6 6 6 7 7 7 6 6 6 6 5 5 5 5 5 4 5 4 5
8 9 9 9 9 11 10 9 9 9 9 9 8 7 6 8 8 8 8 8 7 7 7 7 7 7 6 8 9 8 8 8 8 8 7 7 6 6 5 5 6 5 5
8 9 10 10 9 9 10 10 10 10 10 9 9 8 8 9 9 10 9 8 8 7 7 7 8 10 11 10 11 13 13 13 12 11 10 8 8 6 6 5 6 6 6
8 9 9 10 10 10 11 11 10 10 10 10 10 9 9 9 9 9 9 8 9 9 10 9 9 10 12 14 13 14 17 18 16 14 12 8 8 8 7 6 6 5 6
7 8 8 8 9 9 10 10 11 11 11 11 10 10 9 9 9 9 9 8 9 9 9 9 11 14 14 15 18 20 20 20 20 18 14 9 9 8 8 7 8 6 6
Wind_Direction
343 343 347 346 346 349 352 350 345 341 343 346 342 339 338 340 332 272 191 180 191 197 194 191 195 184 179 182 176 176 176 162 167 167 149 144 148 143 129 130 141 145 154
339 346 347 346 350 356 356 355 352 350 349 349 346 351 353 353 351 12 185 177 178 190 191 183 185 176 174 177 178 179 177 167 159 160 160 154 152 154 140 134 123 127 128
344 349 350 351 353 354 353 354 357 358 357 357 359 3 358 354 358 9 17 134 152 180 186 183 179 168 171 170 170 171 174 170 153 150 154 144 128 141 133 124 117 107 112
345 350 350 348 349 349 351 356 0 0 1 359 360 0 357 357 10 17 43 87 106 99 143 159 161 168 172 169 170 173 164 156 150 148 149 147 142 145 144 140 128 110 106
345 348 343 342 348 354 357 358 0 4 4 1 8 8 4 6 18 26 47 70 87 81 77 96 140 167 172 171 171 170 162 158 154 154 153 150 156 157 158 145 135 121 94
341 338 338 347 354 356 355 357 4 6 6 11 15 12 13 17 22 31 49 63 74 83 75 67 97 136 154 158 162 162 162 163 164 162 163 163 163 155 146 143 140 136 123
335 335 340 346 352 351 354 2 5 4 9 12 12 12 13 13 26 36 42 56 63 69 74 73 86 95 110 117 114 119 131 145 157 160 161 166 163 162 154 151 146 129 122
331 331 336 345 348 350 358 1 359 3 9 11 10 11 16 20 26 33 41 50 55 50 51 62 75 77 110 122 114 101 89 94 122 137 152 158 158 156 154 146 135 112 102
317 318 327 341 346 352 357 354 356 5 11 11 11 15 19 13 20 32 42 45 50 42 36 41 60 85 111 117 114 110 98 82 81 100 108 116 130 139 139 133 134 135 130
281 296 312 328 340 345 345 346 351 3 6 8 16 16 17 14 22 32 39 49 50 41 32 31 47 78 105 115 118 121 116 106 102 95 88 91 104 121 130 143 149 147 137
261 291 312 321 320 326 342 350 356 8 15 15 14 10 13 14 18 27 32 43 51 50 40 27 30 69 92 101 106 115 126 120 106 102 98 93 92 93 92 94 113 141 140
233 267 295 311 322 344 356 354 4 13 18 12 10 6 5 6 14 23 34 44 53 67 49 29 41 72 89 93 98 110 114 109 105 103 99 96 97 93 87 84 86 79 76
214 247 270 292 314 333 340 341 355 10 16 4 7 2 350 354 5 21 31 40 45 55 51 60 68 74 80 84 97 103 104 105 108 108 106 94 84 96 97 90 81 82 76
214 236 248 261 278 292 287 278 286 315 336 346 350 342 337 344 355 0 6 20 30 41 46 56 66 69 68 70 77 76 79 98 111 113 111 97 86 94 96 100 104 97 86
216 226 232 236 245 257 258 246 243 242 218 220 244 257 299 320 317 334 351 358 2 26 59 49 49 54 61 59 62 66 73 88 97 102 112 112 107 104 96 94 103 93 99
215 223 222 221 226 230 249 279 254 242 251 234 223 217 240 256 295 329 346 355 8 82 86 77 73 79 96 102 104 87 78 98 108 117 120 125 130 128 117 95 91 110 119
213 218 215 214 216 218 221 237 275 288 265 253 245 236 234 253 278 303 329 352 13 101 103 121 133 143 145 141 139 136 137 131 128 134 136 139 136 133 128 127 121 116 120
215 220 214 214 214 215 217 219 224 245 276 284 265 246 241 241 248 261 284 15 16 57 165 187 192 189 181 172 166 160 151 141 136 144 148 151 151 146 146 151 152 148 145
213 217 216 213 212 214 215 215 219 227 238 252 269 271 244 236 239 243 209 187 213 224 219 215 208 199 194 187 180 173 168 166 163 159 164 165 163 156 160 165 164 162 155
220 222 211 210 211 211 211 214 220 224 232 238 244 242 209 181 215 227 213 213 217 222 220 220 218 209 201 193 186 178 174 174 174 176 178 176 174 172 173 174 174 175 182
220 222 217 212 213 214 213 216 219 219 225 233 241 230 195 200 219 222 217 218 221 223 219 215 214 210 204 194 188 188 188 190 188 186 184 182 177 179 181 178 181 181 171
222 220 212 214 217 217 218 217 216 219 224 232 242 239 215 210 220 223 223 225 223 221 214 206 209 209 203 199 194 192 195 197 195 192 191 187 183 180 174 175 177 177 177
226 224 221 220 218 219 220 219 217 221 226 229 232 228 213 214 223 225 228 227 221 218 211 206 210 214 210 207 202 195 198 203 200 190 188 188 186 184 180 183 184 180 190
235 231 228 227 222 219 220 223 222 223 224 226 227 226 223 220 222 225 226 223 218 216 209 205 210 214 209 206 208 209 212 211 202 196 189 188 189 188 185 187 191 194 196
246 240 235 232 228 225 225 225 225 225 225 226 226 225 224 221 223 226 225 220 216 217 214 208 212 215 214 210 207 210 214 213 207 200 193 188 190 189 187 189 190 193 195
268 254 247 241 236 233 229 228 228 226 226 227 226 224 222 221 222 224 221 217 216 219 217 213 213 212 212 213 215 215 214 212 209 203 193 188 190 193 189 194 195 194 195
Height
1513 1510 1506 1502 1498 1495 1491 1488 1485 1483 1480 1478 1476 1475 1474 1473 1473 1473 1474 1476 1478 1480 1482 1484 1486 1489 1491 1494 1496 1499 1502 1505 1508 1511 1514 1517 1519 1522 1524 1527 1529 1531 1533
1514 1510 1507 1503 1499 1495 1492 1489 1486 1483 1480 1478 1476 1474 1473 1472 1472 1472 1473 1474 1476 1477 1479 1481 1483 1486 1488 1491 1493 1495 1498 1501 1504 1507 1510 1513 1516 1518 1521 1523 1526 1528 1530
1515 1511 1508 1504 1500 1496 1493 1490 1487 1484 1481 1479 1476 1474 1473 1472 1471 1471 1472 1473 1474 1475 1477 1479 1481 1483 1486 1488 1490 1492 1495 1497 1500 1503 1506 1509 1512 1515 1518 1520 1523 1525 1527
1515 1512 1509 1505 1502 1498 1495 1492 1488 1485 1483 1480 1477 1475 1474 1473 1472 1472 1472 1472 1473 1474 1475 1477 1479 1481 1484 1486 1488 1490 1492 1494 1497 1500 1503 1506 1509 1512 1515 1517 1520 1522 1525
1515 1513 1510 1507 1504 1500 1497 1494 1491 1487 1484 1481 1479 1477 1476 1474 1473 1472 1472 1472 1473 1474 1475 1476 1478 1480 1482 1484 1485 1487 1489 1492 1494 1497 1500 1503 1506 1508 1511 1514 1517 1520 1523
1516 1513 1511 1508 1505 1502 1499 1496 1493 1489 1487 1484 1481 1479 1477 1476 1475 1474 1473 1473 1473 1474 1475 1476 1477 1479 1481 1482 1484 1486 1488 1490 1493 1495 1498 1500 1503 1506 1509 1512 1515 1518 1521
1516 1514 1511 1509 1506 1503 1501 1498 1495 1492 1489 1486 1484 1481 1479 1478 1477 1476 1475 1475 1474 1475 1476 1477 1478 1479 1481 1482 1483 1485 1487 1489 1492 1495 1496 1498 1501 1504 1507 1510 1514 1517 1519
1516 1514 1512 1510 1507 1505 1502 1499 1497 1494 1491 1489 1486 1484 1482 1481 1479 1478 1477 1477 1477 1477 1477 1478 1479 1480 1481 1482 1484 1485 1487 1489 1491 1494 1496 1498 1501 1504 1507 1510 1512 1516 1519
1517 1515 1513 1511 1509 1506 1504 1501 1499 1496 1494 1491 1489 1487 1485 1483 1482 1481 1480 1479 1479 1479 1479 1479 1480 1481 1482 1483 1484 1486 1488 1490 1492 1494 1497 1499 1501 1503 1506 1509 1511 1514 1517
1517 1515 1513 1512 1510 1508 1506 1503 1501 1498 1496 1494 1492 1490 1488 1486 1485 1484 1483 1482 1481 1481 1481 1481 1482 1482 1483 1484 1486 1487 1489 1491 1493 1495 1497 1499 1501 1503 1506 1508 1511 1513 1515
1517 1515 1514 1512 1511 1509 1507 1505 1503 1500 1498 1496 1494 1493 1491 1489 1488 1487 1486 1485 1485 1484 1483 1483 1484 1485 1485 1486 1488 1489 1490 1492 1494 1496 1498 1500 1502 1504 1506 1508 1510 1513 1515
1517 1515 1514 1513 1511 1510 1508 1506 1504 1502 1501 1499 1497 1495 1494 1492 1491 1490 1489 1488 1488 1487 1486 1487 1487 1487 1488 1489 1490 1491 1493 1495 1496 1498 1499 1501 1502 1504 1506 1508 1511 1513 1516
1516 1515 1514 1513 1511 1510 1509 1507 1505 1504 1502 1500 1499 1497 1496 1495 1494 1493 1492 1491 1490 1490 1489 1489 1490 1490 1491 1491 1492 1493 1495 1496 1497 1499 1500 1502 1504 1505 1507 1509 1512 1514 1516
1515 1514 1513 1512 1511 1510 1509 1507 1506 1505 1503 1502 1500 1499 1497 1496 1495 1495 1494 1493 1493 1492 1492 1492 1492 1493 1493 1494 1494 1495 1496 1497 1499 1500 1501 1503 1505 1506 1508 1510 1512 1514 1516
1513 1513 1512 1511 1510 1509 1508 1507 1506 1505 1504 1502 1501 1499 1498 1497 1497 1496 1495 1495 1494 1494 1494 1494 1494 1495 1495 1495 1496 1497 1498 1499 1500 1501 1503 1504 1506 1507 1509 1511 1513 1514 1516
1511 1511 1510 1509 1509 1508 1507 1506 1505 1504 1503 1502 1501 1500 1499 1498 1497 1496 1496 1496 1495 1495 1495 1495 1495 1496 1496 1497 1497 1498 1499 1500 1501 1502 1504 1505 1506 1508 1509 1511 1513 1514 1516
1508 1508 1507 1507 1506 1505 1505 1504 1503 1503 1502 1501 1500 1499 1498 1498 1497 1496 1496 1496 1496 1496 1496 1496 1496 1497 1497 1497 1498 1499 1500 1501 1502 1503 1504 1505 1507 1508 1509 1511 1512 1514 1515
1504 1504 1504 1503 1503 1503 1502 1501 1501 1500 1500 1499 1499 1498 1497 1496 1496 1496 1495 1495 1495 1495 1495 1496 1496 1496 1497 1497 1498 1499 1500 1500 1501 1502 1504 1505 1506 1507 1509 1510 1512 1513 1514
1499 1499 1500 1499 1499 1499 1499 1498 1498 1497 1497 1496 1496 1496 1495 1494 1494 1494 1493 1493 1493 1493 1494 1494 1494 1495 1495 1496 1497 1498 1498 1499 1500 1501 1502 1504 1505 1506 1507 1509 1510 1511 1513
1494 1494 1494 1494 1494 1494 1494 1494 1494 1493 1493 1493 1493 1493 1492 1492 1491 1491 1491 1491 1491 1491 1491 1491 1492 1493 1493 1494 1495 1495 1496 1497 1498 1499 1500 1501 1503 1504 1505 1507 1508 1509 1510
1488 1488 1488 1488 1489 1489 1489 1489 1489 1489 1488 1488 1488 1489 1488 1488 1488 1487 1487 1487 1487 1487 1488 1488 1489 1489 1490 1491 1491 1492 1493 1494 1495 1496 1498 1499 1500 1501 1503 1504 1505 1507 1508
1481 1481 1481 1481 1482 1482 1483 1483 1483 1483 1483 1483 1483 1484 1483 1483 1483 1483 1483 1483 1483 1483 1484 1484 1484 1485 1486 1487 1488 1488 1489 1490 1492 1493 1494 1495 1497 1498 1499 1501 1502 1503 1505
1473 1473 1473 1474 1475 1475 1476 1476 1476 1476 1476 1476 1477 1477 1477 1477 1477 1478 1478 1478 1478 1478 1479 1479 1479 1480 1481 1482 1483 1484 1485 1486 1488 1489 1490 1491 1492 1494 1495 1497 1498 1499 1501
1465 1465 1465 1465 1466 1467 1467 1468 1468 1469 1469 1469 1470 1470 1471 1471 1471 1471 1472 1472 1473 1473 1473 1473 1474 1475 1476 1477 1478 1479 1480 1481 1483 1484 1485 1486 1488 1489 1491 1492 1494 1495 1497
1457 1456 1456 1456 1457 1458 1459 1459 1460 1460 1461 1461 1462 1462 1463 1463 1464 1464 1465 1466 1466 1467 1467 1468 1468 1469 1470 1471 1472 1473 1475 1476 1477 1478 1480 1481 1483 1484 1486 1487 1489 1490 1492
1449 1448 1448 1448 1448 1448 1449 1450 1451 1451 1452 1453 1453 1454 1455 1455 1456 1457 1458 1459 1459 1460 1461 1462 1462 1463 1464 1465 1466 1468 1469 1470 1471 1473 1474 1476 1477 1479 1480 1482 1483 1485 1486